Location: Tel Aviv
(32.0670°N, 34.7670°E)
Time: 21:45:32
(UTC+02:00)

CUTE-I - Pass Details

Date: 15 December 2025
Orbit: 805 x 817 km, 98.7° (Epoch: 21 January)

Event Time Altitude Azimuth Distance (km) Brightness Sun altitude
Rises 05:25:45 0° 22° (NNE) 3,343 ? -14.2°
Reaches altitude 10° 05:28:14 10° 29° (NNE) 2,409 ? -13.7°
Maximum altitude 05:33:15 41° 99° (E) 1,167 ? -12.7°
Drops below altitude 10° 05:38:14 10° 169° (S) 2,400 ? -11.7°
Sets 05:40:42 0° 176° (S) 3,329 ? -11.2°
